Regional Weather Roundup
Issued by NWS

Home | Current Version | Previous Version | Text Only | Print | Product List | Glossary On
Versions: 1 2 3 4 5 6 7 8 9 10 11 12 13 14 15 16 17 18 19 20 21 22 23 24 25 26 27 28 29 30 31 32 33 34 35 36 37 38 39 40 41 42 43 44 45 46 47 48 49 50
000
ASUS43 KTOP 031608
RWRKS

WEATHER ROUNDUP FOR KANSAS
NATIONAL WEATHER SERVICE GOODLAND KS
1100 AM CDT THU SEP 03 2015

NOTE:  "FAIR" INDICATES FEW OR NO CLOUDS BELOW 12,000 FEET WITH NO
SIGNIFICANT WEATHER AND/OR OBSTRUCTIONS TO VISIBILITY.

KSZ001>006-013>018-027>032-041>047-031700-
NORTHWEST KANSAS

CITY           SKY/WX    TMP DP  RH WIND       PRES   REMARKS
GOODLAND       MOSUNNY   85  47  26 VRB3      29.90R
HAYS           SUNNY     88  57  35 S20       29.85S
HILL CITY      SUNNY     86  59  39 S12       29.84S
RUSSELL        SUNNY     88  59  37 S21       29.84S
$$

KSZ061>065-074>080-084>089-031700-
SOUTHWEST KANSAS

CITY           SKY/WX    TMP DP  RH WIND       PRES   REMARKS
DODGE CITY     SUNNY     83  55  38 S21G26    29.90S
ELKHART          N/A     85  60  42 S9          N/A
GARDEN CITY    SUNNY     81  57  43 S14       29.88S
GREAT BEND     SUNNY     86  61  42 S23       29.87S
LIBERAL        MOSUNNY   84  57  39 S16       29.92S
PRATT          SUNNY     82  59  44 MISG      29.93R
$$

KSZ066>073-081>083-090>101-031700-
SOUTHEAST KANSAS

CITY           SKY/WX    TMP DP  RH WIND       PRES   REMARKS
CHANUTE        SUNNY     83  69  62 S14       30.00R
COFFEYVILLE    SUNNY     82  70  66 S13       30.00S
HUTCHINSON     SUNNY     86  63  45 S21G29    29.92S
MEDICINE LODGE   N/A     85  63  47 S16G25    29.91F
NEWTON         SUNNY     84  63  48 S17G25    29.97S
PARSONS        SUNNY     82  71  69 S8        30.01S
WICHITA INTL   PTSUNNY   85  65  51 S21       29.94S
WICHITA JABRA  SUNNY     83  66  56 S20       29.95S
WICHITA MCCONL SUNNY     84  64  50 S18       29.95S
WINFIELD       SUNNY     87  65  47 S15       29.98S
$$

KSZ007>012-019>026-033>040-048>060-102>105-031700-
NORTHEAST KANSAS

CITY           SKY/WX    TMP DP  RH WIND       PRES   REMARKS
CONCORDIA      SUNNY     84  64  50 S17G25    29.87R
EMPORIA        SUNNY     86  65  49 SW18G26   29.96S
LAWRENCE       MOSUNNY   85  67  54 SW12      29.95F
MANHATTAN      MOSUNNY   87  65  47 S15G23    29.90S
MARYSVILLE     SUNNY     86  66  51 SW20G26   29.88F
OLATHE IND     MOSUNNY   84  69  60 S12       29.99R
OLATHE EXE     MOSUNNY   81  69  67 S12       29.98S
SALINA         SUNNY     87  64  46 S20G28    29.88S
TOPEKA BILLARD MOSUNNY   84  67  56 S14       29.94S
TOPEKA FORBES  MOSUNNY   84  68  58 S16       29.94F
$$



USA.gov is the U.S. government's official web portal to all federal, state and local government web resources and services.